Year,Month,Day,Hour,Minute,Value (Times are PST for temperature in C)
2006,03,25,00,00,6.10
2006,03,25,00,01,6.10
2006,03,25,00,02,6.10
2006,03,25,00,03,6.10
2006,03,25,00,04,6.10
2006,03,25,00,05,6.10
2006,03,25,00,06,6.10
2006,03,25,00,07,6.10
2006,03,25,00,08,6.10
2006,03,25,00,09,6.10
2006,03,25,00,10,6.00
2006,03,25,00,11,6.00
2006,03,25,00,12,6.00
2006,03,25,00,13,6.00
2006,03,25,00,14,6.00
2006,03,25,00,15,6.00
2006,03,25,00,16,5.90
2006,03,25,00,17,5.90
2006,03,25,00,18,5.90
2006,03,25,00,19,5.90
2006,03,25,00,20,5.90
2006,03,25,00,21,5.90
2006,03,25,00,22,5.90
2006,03,25,00,23,5.90
2006,03,25,00,24,5.90
2006,03,25,00,25,5.90
2006,03,25,00,26,6.00
2006,03,25,00,27,6.00
2006,03,25,00,28,6.00
2006,03,25,00,29,6.00
2006,03,25,00,30,6.00
2006,03,25,00,31,6.00
2006,03,25,00,32,6.00
2006,03,25,00,33,6.10
2006,03,25,00,34,6.10
2006,03,25,00,35,6.10
2006,03,25,00,36,6.10
2006,03,25,00,37,6.00
2006,03,25,00,38,6.00
2006,03,25,00,39,5.90
2006,03,25,00,40,5.90
2006,03,25,00,41,5.80
2006,03,25,00,42,5.70
2006,03,25,00,43,5.70
2006,03,25,00,44,5.70
2006,03,25,00,45,5.70
2006,03,25,00,46,5.60
2006,03,25,00,47,5.60
2006,03,25,00,48,5.60
2006,03,25,00,49,5.50
2006,03,25,00,50,5.50
2006,03,25,00,51,5.50
2006,03,25,00,52,5.50
2006,03,25,00,53,5.50
2006,03,25,00,54,5.50
2006,03,25,00,55,5.50
2006,03,25,00,56,5.50
2006,03,25,00,57,5.50
2006,03,25,00,58,5.60
2006,03,25,00,59,5.60
2006,03,25,01,00,5.60
2006,03,25,01,01,5.60
2006,03,25,01,02,5.50
2006,03,25,01,03,5.50
2006,03,25,01,04,5.50
2006,03,25,01,05,5.50
2006,03,25,01,06,5.40
2006,03,25,01,07,5.40
2006,03,25,01,08,5.40
2006,03,25,01,09,5.40
2006,03,25,01,10,5.30
2006,03,25,01,11,5.30
2006,03,25,01,12,5.30
2006,03,25,01,13,5.30
2006,03,25,01,14,5.40
2006,03,25,01,15,5.40
2006,03,25,01,16,5.40
2006,03,25,01,17,5.40
2006,03,25,01,18,5.40
2006,03,25,01,19,5.40
2006,03,25,01,20,5.40
2006,03,25,01,21,5.40
2006,03,25,01,22,5.40
2006,03,25,01,23,5.40
2006,03,25,01,24,5.40
2006,03,25,01,25,5.40
2006,03,25,01,26,5.40
2006,03,25,01,27,5.40
2006,03,25,01,28,5.40
2006,03,25,01,29,5.40
2006,03,25,01,30,5.40
2006,03,25,01,31,5.40
2006,03,25,01,32,5.40
2006,03,25,01,33,5.30
2006,03,25,01,34,5.30
2006,03,25,01,35,5.30
2006,03,25,01,36,5.30
2006,03,25,01,37,5.30
2006,03,25,01,38,5.30
2006,03,25,01,39,5.30
2006,03,25,01,40,5.30
2006,03,25,01,41,5.30
2006,03,25,01,42,5.30
2006,03,25,01,43,5.30
2006,03,25,01,44,5.30
2006,03,25,01,45,5.30
2006,03,25,01,46,5.30
2006,03,25,01,47,5.30
2006,03,25,01,48,5.30
2006,03,25,01,49,5.30
2006,03,25,01,50,5.30
2006,03,25,01,51,5.30
2006,03,25,01,52,5.30
2006,03,25,01,53,5.20
2006,03,25,01,54,5.20
2006,03,25,01,55,5.20
2006,03,25,01,56,5.20
2006,03,25,01,57,5.20
2006,03,25,01,58,5.20
2006,03,25,01,59,5.10
2006,03,25,02,00,5.10
2006,03,25,02,01,5.10
2006,03,25,02,02,5.10
2006,03,25,02,03,5.10
2006,03,25,02,04,5.10
2006,03,25,02,05,5.10
2006,03,25,02,06,5.10
2006,03,25,02,07,5.10
2006,03,25,02,08,5.10
2006,03,25,02,09,5.10
2006,03,25,02,10,5.10
2006,03,25,02,11,5.10
2006,03,25,02,12,5.10
2006,03,25,02,13,5.10
2006,03,25,02,14,5.10
2006,03,25,02,15,4.90
2006,03,25,02,16,4.90
2006,03,25,02,17,4.90
2006,03,25,02,18,4.90
2006,03,25,02,19,4.90
2006,03,25,02,20,4.90
2006,03,25,02,21,4.90
2006,03,25,02,22,4.90
2006,03,25,02,23,4.90
2006,03,25,02,24,4.90
2006,03,25,02,25,4.90
2006,03,25,02,26,4.90
2006,03,25,02,27,4.90
2006,03,25,02,28,4.90
2006,03,25,02,29,4.80
2006,03,25,02,30,4.80
2006,03,25,02,31,4.80
2006,03,25,02,32,4.80
2006,03,25,02,33,4.70
2006,03,25,02,34,4.70
2006,03,25,02,35,4.70
2006,03,25,02,36,4.60
2006,03,25,02,37,4.60
2006,03,25,02,38,4.60
2006,03,25,02,39,4.60
2006,03,25,02,40,4.60
2006,03,25,02,41,4.60
2006,03,25,02,42,4.50
2006,03,25,02,43,4.50
2006,03,25,02,44,4.50
2006,03,25,02,45,4.50
2006,03,25,02,46,4.50
2006,03,25,02,47,4.50
2006,03,25,02,48,4.50
2006,03,25,02,49,4.50
2006,03,25,02,50,4.50
2006,03,25,02,51,4.50
2006,03,25,02,52,4.50
2006,03,25,02,53,4.50
2006,03,25,02,54,4.50
2006,03,25,02,55,4.40
2006,03,25,02,56,4.40
2006,03,25,02,57,4.40
2006,03,25,02,58,4.40
2006,03,25,02,59,4.40
2006,03,25,03,00,4.40
2006,03,25,03,01,4.40
2006,03,25,03,02,4.40
2006,03,25,03,03,4.40
2006,03,25,03,04,4.30
2006,03,25,03,05,4.30
2006,03,25,03,06,4.30
2006,03,25,03,07,4.30
2006,03,25,03,08,4.30
2006,03,25,03,09,4.20
2006,03,25,03,10,4.20
2006,03,25,03,11,4.20
2006,03,25,03,12,4.20
2006,03,25,03,13,4.20
2006,03,25,03,14,4.20
2006,03,25,03,15,4.20
2006,03,25,03,16,4.20
2006,03,25,03,17,4.20
2006,03,25,03,18,4.20
2006,03,25,03,19,4.20
2006,03,25,03,20,4.10
2006,03,25,03,21,4.10
2006,03,25,03,22,4.10
2006,03,25,03,23,4.10
2006,03,25,03,24,4.10
2006,03,25,03,25,4.00
2006,03,25,03,26,4.00
2006,03,25,03,27,4.00
2006,03,25,03,28,4.00
2006,03,25,03,29,4.00
2006,03,25,03,30,3.90
2006,03,25,03,31,3.90
2006,03,25,03,32,3.90
2006,03,25,03,33,3.90
2006,03,25,03,34,3.80
2006,03,25,03,35,3.80
2006,03,25,03,36,3.80
2006,03,25,03,37,3.80
2006,03,25,03,38,3.80
2006,03,25,03,39,3.80
2006,03,25,03,40,3.80
2006,03,25,03,41,3.80
2006,03,25,03,42,3.80
2006,03,25,03,43,3.80
2006,03,25,03,44,3.80
2006,03,25,03,45,3.80
2006,03,25,03,46,3.70
2006,03,25,03,47,3.70
2006,03,25,03,48,3.70
2006,03,25,03,49,3.60
2006,03,25,03,50,3.60
2006,03,25,03,51,3.50
2006,03,25,03,52,3.50
2006,03,25,03,53,3.40
2006,03,25,03,54,3.40
2006,03,25,03,55,3.40
2006,03,25,03,56,3.30
2006,03,25,03,57,3.30
2006,03,25,03,58,3.30
2006,03,25,03,59,3.30
2006,03,25,04,00,3.30
2006,03,25,04,01,3.30
2006,03,25,04,02,3.20
2006,03,25,04,03,3.20
2006,03,25,04,04,3.20
2006,03,25,04,05,3.20
2006,03,25,04,06,3.20
2006,03,25,04,07,3.20
2006,03,25,04,08,3.20
2006,03,25,04,09,3.20
2006,03,25,04,10,3.20
2006,03,25,04,11,3.20
2006,03,25,04,12,3.20
2006,03,25,04,13,3.20
2006,03,25,04,14,3.20
2006,03,25,04,15,3.20
2006,03,25,04,16,3.10
2006,03,25,04,17,3.10
2006,03,25,04,18,3.10
2006,03,25,04,19,3.10
2006,03,25,04,20,3.10
2006,03,25,04,21,3.10
2006,03,25,04,22,3.10
2006,03,25,04,23,3.00
2006,03,25,04,24,2.90
2006,03,25,04,25,2.90
2006,03,25,04,26,2.90
2006,03,25,04,27,2.90
2006,03,25,04,28,2.80
2006,03,25,04,29,2.80
2006,03,25,04,30,2.80
2006,03,25,04,31,2.80
2006,03,25,04,32,2.80
2006,03,25,04,33,2.70
2006,03,25,04,34,2.70
2006,03,25,04,35,2.70
2006,03,25,04,36,2.70
2006,03,25,04,37,2.80
2006,03,25,04,38,2.80
2006,03,25,04,39,2.80
2006,03,25,04,40,2.80
2006,03,25,04,41,2.80
2006,03,25,04,42,2.80
2006,03,25,04,43,2.70
2006,03,25,04,44,2.70
2006,03,25,04,45,2.70
2006,03,25,04,46,2.70
2006,03,25,04,47,2.70
2006,03,25,04,48,2.70
2006,03,25,04,49,2.70
2006,03,25,04,50,2.70
2006,03,25,04,51,2.70
2006,03,25,04,52,2.60
2006,03,25,04,53,2.60
2006,03,25,04,54,2.60
2006,03,25,04,55,2.60
2006,03,25,04,56,2.60
2006,03,25,04,57,2.60
2006,03,25,04,58,2.60
2006,03,25,04,59,2.60
2006,03,25,05,00,2.60
2006,03,25,05,01,2.60
2006,03,25,05,02,2.50
2006,03,25,05,03,2.50
2006,03,25,05,04,2.50
2006,03,25,05,05,2.50
2006,03,25,05,06,2.50
2006,03,25,05,07,2.50
2006,03,25,05,08,2.50
2006,03,25,05,09,2.50
2006,03,25,05,10,2.50
2006,03,25,05,11,2.50
2006,03,25,05,12,2.50
2006,03,25,05,13,2.50
2006,03,25,05,14,2.50
2006,03,25,05,15,2.50
2006,03,25,05,16,2.50
2006,03,25,05,17,2.40
2006,03,25,05,18,2.40
2006,03,25,05,19,2.40
2006,03,25,05,20,2.40
2006,03,25,05,21,2.40
2006,03,25,05,22,2.40
2006,03,25,05,23,2.40
2006,03,25,05,24,2.40
2006,03,25,05,25,2.40
2006,03,25,05,26,2.40
2006,03,25,05,27,2.40
2006,03,25,05,28,2.40
2006,03,25,05,29,2.40
2006,03,25,05,30,2.40
2006,03,25,05,31,2.40
2006,03,25,05,32,2.40
2006,03,25,05,33,2.40
2006,03,25,05,34,2.40
2006,03,25,05,35,2.40
2006,03,25,05,36,2.40
2006,03,25,05,37,2.40
2006,03,25,05,38,2.40
2006,03,25,05,39,2.40
2006,03,25,05,40,2.50
2006,03,25,05,41,2.50
2006,03,25,05,42,2.50
2006,03,25,05,43,2.60
2006,03,25,05,44,2.60
2006,03,25,05,45,2.70
2006,03,25,05,46,2.70
2006,03,25,05,47,2.70
2006,03,25,05,48,2.70
2006,03,25,05,49,2.70
2006,03,25,05,50,2.70
2006,03,25,05,51,2.80
2006,03,25,05,52,2.80
2006,03,25,05,53,2.80
2006,03,25,05,54,2.80
2006,03,25,05,55,2.80
2006,03,25,05,56,2.90
2006,03,25,05,57,2.90
2006,03,25,05,58,2.90
2006,03,25,05,59,2.90
2006,03,25,06,00,2.90
2006,03,25,06,01,2.80
2006,03,25,06,02,2.80
2006,03,25,06,03,2.80
2006,03,25,06,04,2.80
2006,03,25,06,05,2.80
2006,03,25,06,06,2.80
2006,03,25,06,07,2.80
2006,03,25,06,08,2.80
2006,03,25,06,09,2.80
2006,03,25,06,10,2.80
2006,03,25,06,11,2.80
2006,03,25,06,12,2.70
2006,03,25,06,13,2.70
2006,03,25,06,14,2.70
2006,03,25,06,15,2.70
2006,03,25,06,16,2.70
2006,03,25,06,17,2.70
2006,03,25,06,18,2.70
2006,03,25,06,19,2.70
2006,03,25,06,20,2.70
2006,03,25,06,21,2.70
2006,03,25,06,22,2.70
2006,03,25,06,23,2.80
2006,03,25,06,24,2.80
2006,03,25,06,25,2.80
2006,03,25,06,26,2.80
2006,03,25,06,27,2.90
2006,03,25,06,28,2.90
2006,03,25,06,29,2.90
2006,03,25,06,30,2.90
2006,03,25,06,31,2.90
2006,03,25,06,32,2.90
2006,03,25,06,33,2.90
2006,03,25,06,34,2.90
2006,03,25,06,35,2.90
2006,03,25,06,36,3.00
2006,03,25,06,37,3.10
2006,03,25,06,38,3.10
2006,03,25,06,39,3.10
2006,03,25,06,40,3.10
2006,03,25,06,41,3.10
2006,03,25,06,42,3.10
2006,03,25,06,43,3.10
2006,03,25,06,44,3.10
2006,03,25,06,45,3.10
2006,03,25,06,46,3.10
2006,03,25,06,47,3.10
2006,03,25,06,48,3.10
2006,03,25,06,49,3.10
2006,03,25,06,50,3.10
2006,03,25,06,51,3.10
2006,03,25,06,52,3.10
2006,03,25,06,53,3.10
2006,03,25,06,54,3.10
2006,03,25,06,55,3.10
2006,03,25,06,56,3.10
2006,03,25,06,57,3.10
2006,03,25,06,58,3.10
2006,03,25,06,59,3.10
2006,03,25,07,00,3.10
2006,03,25,07,01,3.10
2006,03,25,07,02,3.10
2006,03,25,07,03,3.10
2006,03,25,07,04,3.10
2006,03,25,07,05,3.00
2006,03,25,07,06,2.90
2006,03,25,07,07,2.90
2006,03,25,07,08,2.90
2006,03,25,07,09,2.90
2006,03,25,07,10,2.90
2006,03,25,07,11,2.90
2006,03,25,07,12,2.90
2006,03,25,07,13,2.90
2006,03,25,07,14,2.90
2006,03,25,07,15,2.90
2006,03,25,07,16,2.90
2006,03,25,07,17,3.00
2006,03,25,07,18,3.10
2006,03,25,07,19,3.10
2006,03,25,07,20,3.10
2006,03,25,07,21,3.10
2006,03,25,07,22,3.10
2006,03,25,07,23,3.20
2006,03,25,07,24,3.20
2006,03,25,07,25,3.20
2006,03,25,07,26,3.30
2006,03,25,07,27,3.30
2006,03,25,07,28,3.30
2006,03,25,07,29,3.40
2006,03,25,07,30,3.40
2006,03,25,07,31,3.50
2006,03,25,07,32,3.50
2006,03,25,07,33,3.60
2006,03,25,07,34,3.60
2006,03,25,07,35,3.70
2006,03,25,07,36,3.80
2006,03,25,07,37,3.80
2006,03,25,07,38,3.90
2006,03,25,07,39,4.00
2006,03,25,07,40,4.10
2006,03,25,07,41,4.10
2006,03,25,07,42,4.20
2006,03,25,07,43,4.20
2006,03,25,07,44,4.30
2006,03,25,07,45,4.40
2006,03,25,07,46,4.50
2006,03,25,07,47,4.60
2006,03,25,07,48,4.60
2006,03,25,07,49,4.80
2006,03,25,07,50,4.80
2006,03,25,07,51,4.90
2006,03,25,07,52,4.90
2006,03,25,07,53,5.00
2006,03,25,07,54,5.10
2006,03,25,07,55,5.10
2006,03,25,07,56,5.10
2006,03,25,07,57,5.20
2006,03,25,07,58,5.20
2006,03,25,07,59,5.30
2006,03,25,08,00,5.40
2006,03,25,08,01,5.50
2006,03,25,08,02,5.50
2006,03,25,08,03,5.60
2006,03,25,08,04,5.60
2006,03,25,08,05,5.70
2006,03,25,08,06,5.70
2006,03,25,08,07,5.70
2006,03,25,08,08,5.70
2006,03,25,08,09,5.80
2006,03,25,08,10,5.90
2006,03,25,08,11,5.90
2006,03,25,08,12,5.90
2006,03,25,08,13,6.00
2006,03,25,08,14,6.00
2006,03,25,08,15,6.10
2006,03,25,08,16,6.20
2006,03,25,08,17,6.20
2006,03,25,08,18,6.20
2006,03,25,08,19,6.30
2006,03,25,08,20,6.40
2006,03,25,08,21,6.40
2006,03,25,08,22,6.50
2006,03,25,08,23,6.60
2006,03,25,08,24,6.70
2006,03,25,08,25,6.70
2006,03,25,08,26,6.80
2006,03,25,08,27,6.90
2006,03,25,08,28,7.00
2006,03,25,08,29,7.10
2006,03,25,08,30,7.20
2006,03,25,08,31,7.30
2006,03,25,08,32,7.30
2006,03,25,08,33,7.40
2006,03,25,08,34,7.40
2006,03,25,08,35,7.50
2006,03,25,08,36,7.60
2006,03,25,08,37,7.70
2006,03,25,08,38,7.90
2006,03,25,08,39,8.10
2006,03,25,08,40,8.20
2006,03,25,08,41,8.20
2006,03,25,08,42,8.30
2006,03,25,08,43,8.50
2006,03,25,08,44,8.50
2006,03,25,08,45,8.60
2006,03,25,08,46,8.70
2006,03,25,08,47,8.70
2006,03,25,08,48,8.70
2006,03,25,08,49,8.70
2006,03,25,08,50,8.70
2006,03,25,08,51,8.70
2006,03,25,08,52,8.70
2006,03,25,08,53,8.70
2006,03,25,08,54,8.70
2006,03,25,08,55,8.60
2006,03,25,08,56,8.60
2006,03,25,08,57,8.60
2006,03,25,08,58,8.60
2006,03,25,08,59,8.60
2006,03,25,09,00,8.70
2006,03,25,09,01,8.70
2006,03,25,09,02,8.70
2006,03,25,09,03,8.60
2006,03,25,09,04,8.70
2006,03,25,09,05,8.70
2006,03,25,09,06,8.70
2006,03,25,09,07,8.70
2006,03,25,09,08,8.70
2006,03,25,09,09,8.70
2006,03,25,09,10,8.80
2006,03,25,09,11,8.80
2006,03,25,09,12,8.80
2006,03,25,09,13,8.80
2006,03,25,09,14,8.80
2006,03,25,09,15,8.90
2006,03,25,09,16,9.00
2006,03,25,09,17,9.00
2006,03,25,09,18,9.10
2006,03,25,09,19,9.00
2006,03,25,09,20,9.00
2006,03,25,09,21,9.00
2006,03,25,09,22,9.00
2006,03,25,09,23,9.00
2006,03,25,09,24,9.00
2006,03,25,09,25,9.10
2006,03,25,09,26,9.20
2006,03,25,09,27,9.20
2006,03,25,09,28,9.20
2006,03,25,09,29,9.20
2006,03,25,09,30,9.20
2006,03,25,09,31,9.20
2006,03,25,09,32,9.20
2006,03,25,09,33,9.20
2006,03,25,09,34,9.30
2006,03,25,09,35,9.40
2006,03,25,09,36,9.50
2006,03,25,09,37,9.50
2006,03,25,09,38,9.60
2006,03,25,09,39,9.70
2006,03,25,09,40,9.70
2006,03,25,09,41,9.70
2006,03,25,09,42,9.60
2006,03,25,09,43,9.60
2006,03,25,09,44,9.60
2006,03,25,09,45,9.60
2006,03,25,09,46,9.60
2006,03,25,09,47,9.60
2006,03,25,09,48,9.60
2006,03,25,09,49,9.60
2006,03,25,09,50,9.50
2006,03,25,09,51,9.50
2006,03,25,09,52,9.50
2006,03,25,09,53,9.40
2006,03,25,09,54,9.40
2006,03,25,09,55,9.40
2006,03,25,09,56,9.40
2006,03,25,09,57,9.50
2006,03,25,09,58,9.60
2006,03,25,09,59,9.70
2006,03,25,10,00,9.70
2006,03,25,10,01,9.70
2006,03,25,10,02,9.70
2006,03,25,10,03,9.70
2006,03,25,10,04,9.80
2006,03,25,10,05,9.90
2006,03,25,10,06,9.90
2006,03,25,10,07,9.90
2006,03,25,10,08,10.00
2006,03,25,10,09,10.10
2006,03,25,10,10,10.10
2006,03,25,10,11,10.10
2006,03,25,10,12,10.10
2006,03,25,10,13,10.10
2006,03,25,10,14,10.00
2006,03,25,10,15,9.90
2006,03,25,10,16,9.90
2006,03,25,10,17,9.90
2006,03,25,10,18,9.90
2006,03,25,10,19,9.90
2006,03,25,10,20,9.90
2006,03,25,10,21,9.90
2006,03,25,10,22,10.00
2006,03,25,10,23,10.10
2006,03,25,10,24,10.10
2006,03,25,10,25,10.20
2006,03,25,10,26,10.30
2006,03,25,10,27,10.40
2006,03,25,10,28,10.40
2006,03,25,10,29,10.40
2006,03,25,10,30,10.60
2006,03,25,10,31,10.60
2006,03,25,10,32,10.60
2006,03,25,10,33,10.60
2006,03,25,10,34,10.60
2006,03,25,10,35,10.50
2006,03,25,10,36,10.40
2006,03,25,10,37,10.40
2006,03,25,10,38,10.40
2006,03,25,10,39,10.40
2006,03,25,10,40,10.40
2006,03,25,10,41,10.40
2006,03,25,10,42,10.40
2006,03,25,10,43,10.40
2006,03,25,10,44,10.40
2006,03,25,10,45,10.40
2006,03,25,10,46,10.40
2006,03,25,10,47,10.40
2006,03,25,10,48,10.40
2006,03,25,10,49,10.40
2006,03,25,10,50,10.30
2006,03,25,10,51,10.30
2006,03,25,10,52,10.30
2006,03,25,10,53,10.40
2006,03,25,10,54,10.40
2006,03,25,10,55,10.40
2006,03,25,10,56,10.40
2006,03,25,10,57,10.60
2006,03,25,10,58,10.60
2006,03,25,10,59,10.60
2006,03,25,11,00,10.70
2006,03,25,11,01,10.70
2006,03,25,11,02,10.80
2006,03,25,11,03,10.80
2006,03,25,11,04,10.80
2006,03,25,11,05,10.80
2006,03,25,11,06,10.70
2006,03,25,11,07,10.60
2006,03,25,11,08,10.60
2006,03,25,11,09,10.60
2006,03,25,11,10,10.60
2006,03,25,11,11,10.70
2006,03,25,11,12,10.70
2006,03,25,11,13,10.70
2006,03,25,11,14,10.70
2006,03,25,11,15,10.80
2006,03,25,11,16,10.90
2006,03,25,11,17,11.00
2006,03,25,11,18,11.10
2006,03,25,11,19,11.10
2006,03,25,11,20,11.10
2006,03,25,11,21,11.10
2006,03,25,11,22,11.10
2006,03,25,11,23,11.20
2006,03,25,11,24,11.20
2006,03,25,11,25,11.10
2006,03,25,11,26,11.10
2006,03,25,11,27,11.10
2006,03,25,11,28,11.00
2006,03,25,11,29,10.90
2006,03,25,11,30,10.90
2006,03,25,11,31,10.90
2006,03,25,11,32,11.10
2006,03,25,11,33,11.10
2006,03,25,11,34,11.10
2006,03,25,11,35,11.10
2006,03,25,11,36,11.10
2006,03,25,11,37,11.10
2006,03,25,11,38,11.00
2006,03,25,11,39,10.90
2006,03,25,11,40,10.80
2006,03,25,11,41,10.80
2006,03,25,11,42,10.80
2006,03,25,11,43,10.70
2006,03,25,11,44,10.60
2006,03,25,11,45,10.60
2006,03,25,11,46,10.50
2006,03,25,11,47,10.40
2006,03,25,11,48,10.40
2006,03,25,11,49,10.20
2006,03,25,11,50,10.00
2006,03,25,11,51,9.90
2006,03,25,11,52,9.70
2006,03,25,11,53,9.70
2006,03,25,11,54,9.70
2006,03,25,11,55,9.70
2006,03,25,11,56,9.70
2006,03,25,11,57,9.80
2006,03,25,11,58,9.90
2006,03,25,11,59,9.90
2006,03,25,12,00,9.90
2006,03,25,12,01,9.90
2006,03,25,12,02,9.90
2006,03,25,12,03,9.90
2006,03,25,12,04,9.90
2006,03,25,12,05,9.90
2006,03,25,12,06,9.90
2006,03,25,12,07,9.90
2006,03,25,12,08,9.90
2006,03,25,12,09,9.90
2006,03,25,12,10,9.80
2006,03,25,12,11,9.70
2006,03,25,12,12,9.60
2006,03,25,12,13,9.60
2006,03,25,12,14,9.60
2006,03,25,12,15,9.60
2006,03,25,12,16,9.70
2006,03,25,12,17,9.70
2006,03,25,12,18,9.70
2006,03,25,12,19,9.70
2006,03,25,12,20,9.80
2006,03,25,12,21,9.80
2006,03,25,12,22,9.90
2006,03,25,12,23,9.90
2006,03,25,12,24,9.90
2006,03,25,12,25,9.90
2006,03,25,12,26,9.90
2006,03,25,12,27,9.90
2006,03,25,12,28,9.90
2006,03,25,12,29,9.90
2006,03,25,12,30,9.90
2006,03,25,12,31,10.00
2006,03,25,12,32,10.10
2006,03,25,12,33,10.20
2006,03,25,12,34,10.30
2006,03,25,12,35,10.40
2006,03,25,12,36,10.50
2006,03,25,12,37,10.60
2006,03,25,12,38,10.50
2006,03,25,12,39,10.40
2006,03,25,12,40,10.50
2006,03,25,12,41,10.60
2006,03,25,12,42,10.50
2006,03,25,12,43,10.40
2006,03,25,12,44,10.30
2006,03,25,12,45,10.30
2006,03,25,12,46,10.30
2006,03,25,12,47,10.40
2006,03,25,12,48,10.40
2006,03,25,12,49,10.50
2006,03,25,12,50,10.50
2006,03,25,12,51,10.40
2006,03,25,12,52,10.40
2006,03,25,12,53,10.40
2006,03,25,12,54,10.30
2006,03,25,12,55,10.30
2006,03,25,12,56,10.30
2006,03,25,12,57,10.40
2006,03,25,12,58,10.40
2006,03,25,12,59,10.60
2006,03,25,13,00,10.50
2006,03,25,13,01,10.50
2006,03,25,13,02,10.60
2006,03,25,13,03,10.60
2006,03,25,13,04,10.70
2006,03,25,13,05,10.70
2006,03,25,13,06,10.70
2006,03,25,13,07,10.80
2006,03,25,13,08,10.90
2006,03,25,13,09,10.90
2006,03,25,13,10,10.80
2006,03,25,13,11,10.80
2006,03,25,13,12,10.90
2006,03,25,13,13,10.90
2006,03,25,13,14,10.90
2006,03,25,13,15,10.90
2006,03,25,13,16,10.90
2006,03,25,13,17,11.00
2006,03,25,13,18,11.10
2006,03,25,13,19,11.10
2006,03,25,13,20,11.00
2006,03,25,13,21,10.90
2006,03,25,13,22,10.90
2006,03,25,13,23,10.90
2006,03,25,13,24,10.70
2006,03,25,13,25,10.70
2006,03,25,13,26,10.70
2006,03,25,13,27,10.70
2006,03,25,13,28,10.70
2006,03,25,13,29,10.70
2006,03,25,13,30,10.90
2006,03,25,13,31,10.90
2006,03,25,13,32,11.10
2006,03,25,13,33,11.10
2006,03,25,13,34,11.10
2006,03,25,13,35,11.10
2006,03,25,13,36,11.10
2006,03,25,13,37,11.10
2006,03,25,13,38,11.10
2006,03,25,13,39,11.10
2006,03,25,13,40,11.10
2006,03,25,13,41,11.10
2006,03,25,13,42,11.10
2006,03,25,13,43,11.10
2006,03,25,13,44,11.00
2006,03,25,13,45,10.90
2006,03,25,13,46,10.90
2006,03,25,13,47,10.90
2006,03,25,13,48,10.90
2006,03,25,13,49,10.90
2006,03,25,13,50,11.00
2006,03,25,13,51,11.10
2006,03,25,13,52,11.00
2006,03,25,13,53,11.00
2006,03,25,13,54,11.00
2006,03,25,13,55,11.10
2006,03,25,13,56,11.10
2006,03,25,13,57,11.10
2006,03,25,13,58,11.20
2006,03,25,13,59,11.30
2006,03,25,14,00,11.30
2006,03,25,14,01,11.20
2006,03,25,14,02,11.10
2006,03,25,14,03,11.00
2006,03,25,14,04,10.90
2006,03,25,14,05,11.00
2006,03,25,14,06,11.20
2006,03,25,14,07,11.20
2006,03,25,14,08,11.40
2006,03,25,14,09,11.40
2006,03,25,14,10,11.40
2006,03,25,14,11,11.40
2006,03,25,14,12,11.30
2006,03,25,14,13,11.30
2006,03,25,14,14,11.30
2006,03,25,14,15,11.40
2006,03,25,14,16,11.40
2006,03,25,14,17,11.20
2006,03,25,14,18,11.10
2006,03,25,14,19,11.10
2006,03,25,14,20,11.10
2006,03,25,14,21,11.10
2006,03,25,14,22,11.10
2006,03,25,14,23,11.10
2006,03,25,14,24,11.00
2006,03,25,14,25,10.90
2006,03,25,14,26,11.00
2006,03,25,14,27,11.20
2006,03,25,14,28,11.30
2006,03,25,14,29,11.30
2006,03,25,14,30,11.20
2006,03,25,14,31,11.30
2006,03,25,14,32,11.20
2006,03,25,14,33,11.10
2006,03,25,14,34,11.20
2006,03,25,14,35,11.30
2006,03,25,14,36,11.40
2006,03,25,14,37,11.40
2006,03,25,14,38,11.40
2006,03,25,14,39,11.40
2006,03,25,14,40,11.40
2006,03,25,14,41,11.30
2006,03,25,14,42,11.10
2006,03,25,14,43,11.10
2006,03,25,14,44,11.10
2006,03,25,14,45,11.00
2006,03,25,14,46,10.90
2006,03,25,14,47,10.90
2006,03,25,14,48,10.90
2006,03,25,14,49,10.90
2006,03,25,14,50,10.90
2006,03,25,14,51,11.00
2006,03,25,14,52,11.10
2006,03,25,14,53,11.10
2006,03,25,14,54,11.30
2006,03,25,14,55,11.50
2006,03,25,14,56,11.60
2006,03,25,14,57,11.60
2006,03,25,14,58,11.70
2006,03,25,14,59,11.70
2006,03,25,15,00,11.60
2006,03,25,15,01,11.60
2006,03,25,15,02,11.60
2006,03,25,15,03,11.50
2006,03,25,15,04,11.30
2006,03,25,15,05,11.20
2006,03,25,15,06,11.20
2006,03,25,15,07,11.20
2006,03,25,15,08,11.20
2006,03,25,15,09,11.20
2006,03,25,15,10,11.30
2006,03,25,15,11,11.20
2006,03,25,15,12,11.20
2006,03,25,15,13,11.20
2006,03,25,15,14,11.20
2006,03,25,15,15,11.10
2006,03,25,15,16,11.10
2006,03,25,15,17,11.10
2006,03,25,15,18,11.10
2006,03,25,15,19,11.10
2006,03,25,15,20,11.10
2006,03,25,15,21,11.20
2006,03,25,15,22,11.30
2006,03,25,15,23,11.40
2006,03,25,15,24,11.50
2006,03,25,15,25,11.60
2006,03,25,15,26,11.50
2006,03,25,15,27,11.40
2006,03,25,15,28,11.40
2006,03,25,15,29,11.30
2006,03,25,15,30,11.40
2006,03,25,15,31,11.40
2006,03,25,15,32,11.40
2006,03,25,15,33,11.40
2006,03,25,15,34,11.40
2006,03,25,15,35,11.40
2006,03,25,15,36,11.40
2006,03,25,15,37,11.40
2006,03,25,15,38,11.40
2006,03,25,15,39,11.30
2006,03,25,15,40,11.30
2006,03,25,15,41,11.30
2006,03,25,15,42,11.20
2006,03,25,15,43,11.20
2006,03,25,15,44,11.20
2006,03,25,15,45,11.20
2006,03,25,15,46,11.20
2006,03,25,15,47,11.20
2006,03,25,15,48,11.20
2006,03,25,15,49,11.30
2006,03,25,15,50,11.40
2006,03,25,15,51,11.50
2006,03,25,15,52,11.60
2006,03,25,15,53,11.60
2006,03,25,15,54,11.40
2006,03,25,15,55,11.40
2006,03,25,15,56,11.40
2006,03,25,15,57,11.40
2006,03,25,15,58,11.40
2006,03,25,15,59,11.30
2006,03,25,16,00,11.30
2006,03,25,16,01,11.30
2006,03,25,16,02,11.20
2006,03,25,16,03,11.30
2006,03,25,16,04,11.30
2006,03,25,16,05,11.20
2006,03,25,16,06,11.20
2006,03,25,16,07,11.20
2006,03,25,16,08,11.20
2006,03,25,16,09,11.20
2006,03,25,16,10,11.30
2006,03,25,16,11,11.30
2006,03,25,16,12,11.30
2006,03,25,16,13,11.30
2006,03,25,16,14,11.30
2006,03,25,16,15,11.20
2006,03,25,16,16,11.10
2006,03,25,16,17,11.10
2006,03,25,16,18,11.10
2006,03,25,16,19,11.00
2006,03,25,16,20,10.90
2006,03,25,16,21,10.90
2006,03,25,16,22,10.90
2006,03,25,16,23,10.90
2006,03,25,16,24,10.90
2006,03,25,16,25,10.90
2006,03,25,16,26,10.90
2006,03,25,16,27,10.90
2006,03,25,16,28,11.00
2006,03,25,16,29,11.10
2006,03,25,16,30,11.10
2006,03,25,16,31,11.10
2006,03,25,16,32,11.10
2006,03,25,16,33,11.10
2006,03,25,16,34,11.10
2006,03,25,16,35,11.10
2006,03,25,16,36,11.10
2006,03,25,16,37,11.20
2006,03,25,16,38,11.20
2006,03,25,16,39,11.30
2006,03,25,16,40,11.30
2006,03,25,16,41,11.30
2006,03,25,16,42,11.30
2006,03,25,16,43,11.30
2006,03,25,16,44,11.30
2006,03,25,16,45,11.30
2006,03,25,16,46,11.30
2006,03,25,16,47,11.30
2006,03,25,16,48,11.30
2006,03,25,16,49,11.30
2006,03,25,16,50,11.20
2006,03,25,16,51,11.20
2006,03,25,16,52,11.20
2006,03,25,16,53,11.20
2006,03,25,16,54,11.10
2006,03,25,16,55,11.10
2006,03,25,16,56,11.10
2006,03,25,16,57,11.10
2006,03,25,16,58,11.10
2006,03,25,16,59,11.10
2006,03,25,17,00,11.10
2006,03,25,17,01,11.10
2006,03,25,17,02,11.10
2006,03,25,17,03,11.10
2006,03,25,17,04,11.10
2006,03,25,17,05,11.10
2006,03,25,17,06,10.90
2006,03,25,17,07,10.90
2006,03,25,17,08,10.90
2006,03,25,17,09,10.90
2006,03,25,17,10,10.80
2006,03,25,17,11,10.80
2006,03,25,17,12,10.80
2006,03,25,17,13,10.80
2006,03,25,17,14,10.80
2006,03,25,17,15,10.80
2006,03,25,17,16,10.70
2006,03,25,17,17,10.60
2006,03,25,17,18,10.60
2006,03,25,17,19,10.60
2006,03,25,17,20,10.60
2006,03,25,17,21,10.60
2006,03,25,17,22,10.60
2006,03,25,17,23,10.50
2006,03,25,17,24,10.40
2006,03,25,17,25,10.40
2006,03,25,17,26,10.40
2006,03,25,17,27,10.40
2006,03,25,17,28,10.30
2006,03,25,17,29,10.30
2006,03,25,17,30,10.30
2006,03,25,17,31,10.30
2006,03,25,17,32,10.30
2006,03,25,17,33,10.30
2006,03,25,17,34,10.30
2006,03,25,17,35,10.30
2006,03,25,17,36,10.30
2006,03,25,17,37,10.30
2006,03,25,17,38,10.20
2006,03,25,17,39,10.20
2006,03,25,17,40,10.20
2006,03,25,17,41,10.20
2006,03,25,17,42,10.10
2006,03,25,17,43,10.10
2006,03,25,17,44,10.10
2006,03,25,17,45,10.10
2006,03,25,17,46,10.10
2006,03,25,17,47,10.00